FW0765 Weather Reports


Display with metric or nautical units.
time (UTC)temp
F
wind
direction
speed
MPH
gust
MPH
rain 1hr
in
rain 24hr
in
rain mn
in
humidity
%
barometer
mb
20260504081537 62 219 5.0 10.0 0.00 0.00 0.00 67 1011.9
20260504050106 65 196 5.0 9.0 0.00 0.00 0.00 60 1014.6
20260504044511 66 195 4.0 11.0 0.00 0.00 0.00 60 1014.6
20260504043010 66 180 7.0 11.0 0.00 0.00 0.00 59 1014.8
20260504041508 66 197 4.0 8.0 0.00 0.00 0.00 59 1014.8
20260504040002 67 171 4.0 9.0 0.00 0.00 0.00 57 1015.1
20260504034501 67 174 5.0 9.0 0.00 0.00 0.00 56 1014.9
20260504033100 68 182 6.0 10.0 0.00 0.00 0.00 55 1014.9
20260504031600 68 165 5.0 11.0 0.00 0.00 0.00 56 1014.8
20260504030059 68 175 4.0 9.0 0.00 0.00 0.00 56 1014.7
20260504024557 68 175 4.0 9.0 0.00 0.00 0.00 57 1014.7
20260504023057 67 194 3.0 6.0 0.00 0.00 0.00 59 1014.8
20260504021556 68 174 2.0 5.0 0.00 0.00 0.00 57 1014.7
20260504020122 69 175 2.0 5.0 0.00 0.00 0.00 55 1014.5
20260504014600 69 196 3.0 6.0 0.00 0.00 0.00 53 1014.5
20260504013118 70 182 2.0 5.0 0.00 0.00 0.00 52 1014.8
20260504011554 71 178 3.0 8.0 0.00 0.00 0.00 50 1014.6
20260504010055 72 188 3.0 5.0 0.00 0.00 0.00 49 1014.6
20260504004553 72 188 5.0 9.0 0.00 0.00 0.00 46 1014.8
20260504003052 73 173 7.0 12.0 0.00 0.00 0.00 45 1014.7
20260504001552 73 188 5.0 11.0 0.00 0.00 0.00 44 1014.7
20260504000050 74 209 5.0 12.0 0.00 0.00 0.00 44 1014.7
20260503234548 74 152 6.0 11.0 0.00 0.00 0.00 42 1014.9
20260503233047 74 186 6.0 10.0 0.00 0.00 0.00 43 1014.8
20260503231547 75 216 6.0 15.0 0.00 0.00 0.00 43 1014.8
20260503230046 75 218 7.0 15.0 0.00 0.00 0.00 43 1014.9
20260503224544 75 157 5.0 14.0 0.00 0.00 0.00 44 1014.9
20260503223043 75 176 8.0 12.0 0.00 0.00 0.00 44 1015.5
20260503221556 75 198 7.0 13.0 0.00 0.00 0.00 44 1015.8
20260503220041 75 199 7.0 14.0 0.00 0.00 0.00 43 1015.6
20260503214541 75 225 5.0 12.0 0.00 0.00 0.00 44 1015.7
20260503213043 75 209 6.0 17.0 0.00 0.00 0.00 42 1015.9
20260503211536 76 194 9.0 16.0 0.00 0.00 0.00 40 1016.3
20260503210034 77 228 9.0 16.0 0.00 0.00 0.00 41 1016.7
20260503204531 76 223 7.0 15.0 0.00 0.00 0.00 41 1016.9
20260503203034 76 204 5.0 12.0 0.00 0.00 0.00 44 1017.3
20260503201526 76 205 5.0 20.0 0.00 0.00 0.00 42 1017.7
20260503200026 75 201 5.0 13.0 0.00 0.00 0.00 45 1018.1
20260503194521 75 190 6.0 16.0 0.00 0.00 0.00 45 1018.2
20260503193034 75 213 7.0 14.0 0.00 0.00 0.00 44 1018.7
20260503191538 75 247 7.0 17.0 0.00 0.00 0.00 44 1018.8
20260503190026 74 175 4.0 12.0 0.00 0.00 0.00 46 1019.1
20260503184512 74 189 9.0 14.0 0.00 0.00 0.00 47 1019.4
20260503183009 74 147 8.0 14.0 0.00 0.00 0.00 46 1019.7
20260503181507 73 137 6.0 16.0 0.00 0.00 0.00 47 1020.0
20260503180006 73 120 5.0 10.0 0.00 0.00 0.00 47 1020.3
20260503174501 72 179 5.0 13.0 0.00 0.00 0.00 49 1020.5
20260503173105 72 217 5.0 15.0 0.00 0.00 0.00 50 1020.9
20260503171557 72 215 2.0 11.0 0.00 0.00 0.00 48 1021.2
20260503170106 71 246 7.0 12.0 0.00 0.00 0.00 50 1021.5